Wind_Speed
32 41 50 55 59 61 61 60 60 59 57 57 58 58 58 59 60 61 62 62 62 60 60 61 62 64 63 62 62 61 62 62 61 61 60 59 57 55 51 48 46 45
29 35 43 47 51 56 58 59 59 59 58 58 59 61 61 62 64 64 63 63 64 64 64 64 64 66 66 66 65 64 64 63 62 61 59 57 53 49 46 44 43 42
30 35 41 44 48 52 55 57 59 59 59 59 61 63 64 65 67 68 66 65 66 66 66 66 67 68 69 69 68 66 65 64 62 60 57 53 49 46 43 42 41 41
36 38 40 41 45 50 55 57 59 59 59 58 58 60 63 66 69 70 69 68 67 68 70 71 71 70 69 68 67 67 65 63 61 57 53 50 46 44 42 41 41 42
38 36 33 31 31 40 51 55 57 59 60 60 57 55 58 63 68 72 73 73 72 73 74 74 72 69 67 67 67 65 63 61 58 54 50 47 44 42 42 42 43 43
40 36 32 29 28 33 43 50 54 57 59 60 58 56 56 59 63 68 71 73 74 74 74 72 70 69 67 66 64 62 60 57 54 51 48 45 43 42 42 43 43 44
42 38 34 33 34 35 37 42 48 52 54 55 55 55 56 57 61 65 67 68 69 69 69 68 67 65 63 61 60 58 57 55 52 49 46 44 43 43 43 43 43 43
41 40 35 35 37 37 37 38 42 46 49 51 52 53 54 55 57 61 63 63 63 63 63 62 61 60 59 58 57 56 55 53 51 48 45 43 43 43 43 42 42 40
39 42 40 37 36 37 38 39 40 43 46 48 50 51 52 52 52 54 56 57 58 57 58 58 58 57 57 56 56 55 53 51 48 45 43 42 42 41 41 41 39 37
40 42 42 39 37 38 40 41 42 44 46 47 48 48 48 48 48 49 50 51 52 53 53 54 55 55 55 55 54 53 50 47 44 43 42 41 40 40 39 37 36 34
43 43 43 41 40 40 42 43 43 44 44 44 44 45 45 45 45 46 47 49 50 51 52 53 53 53 53 53 52 50 46 43 41 40 40 39 38 37 35 34 33 32
46 45 45 45 45 44 43 43 42 42 41 40 40 42 42 43 44 45 46 48 49 51 52 53 53 52 51 50 49 46 42 40 40 39 38 37 35 34 33 32 32 31
43 44 45 47 48 46 44 43 41 40 39 39 39 39 40 41 42 42 42 43 45 46 47 48 49 49 48 48 46 44 42 41 39 37 35 34 33 32 31 31 31 31
39 40 42 45 46 45 44 43 41 40 39 39 39 40 41 41 41 41 40 40 40 41 42 43 44 44 43 43 42 40 39 37 35 33 33 32 32 31 31 30 30 31
36 38 41 44 46 46 45 43 43 43 42 42 43 43 44 45 45 45 43 43 43 43 42 41 39 38 38 37 36 35 34 34 33 32 32 32 32 31 31 31 33 34
35 38 40 44 48 49 48 46 46 46 46 45 45 45 46 47 47 47 48 48 48 47 45 43 40 39 38 37 36 35 34 35 34 34 33 33 33 33 34 36 37 38
36 39 40 43 48 51 51 50 48 48 48 48 48 47 47 47 46 47 48 50 50 50 48 45 43 42 40 39 38 37 37 37 36 36 35 35 36 36 38 39 40 40
36 41 40 40 44 48 51 52 52 51 50 51 50 49 49 48 47 46 47 48 49 49 48 46 44 43 42 41 40 40 40 40 39 38 38 38 39 40 41 42 42 43
37 37 37 37 40 44 47 51 53 54 54 54 53 53 52 50 49 48 46 46 46 47 46 45 44 43 43 43 43 43 43 43 42 41 41 42 42 43 44 45 45 46
40 37 37 37 38 41 43 47 51 53 55 56 56 55 55 54 51 49 47 46 46 46 45 44 44 45 45 46 46 45 46 46 46 45 44 45 45 46 47 47 47 48
45 42 42 41 40 40 41 43 46 48 51 54 56 56 56 57 54 51 49 48 47 47 46 45 46 47 48 48 48 48 48 48 48 47 47 47 48 48 49 49 50 51
52 48 47 45 42 40 40 40 41 44 46 49 53 56 58 59 57 54 51 50 49 48 48 48 48 48 49 49 50 50 50 50 50 49 48 49 50 51 52 52 52 53
60 55 52 51 49 46 44 43 43 44 44 46 51 55 58 60 60 57 53 52 50 50 49 49 49 49 50 51 51 51 51 51 51 51 51 51 53 53 54 53 54 55
65 62 58 56 55 54 52 50 48 48 48 49 50 52 54 58 60 58 55 53 52 51 50 50 50 50 50 51 51 52 52 53 53 53 53 53 54 55 56 57 58 59
64 66 64 60 58 58 57 56 54 54 53 52 52 52 52 55 56 56 56 55 54 53 53 52 52 53 53 54 54 55 56 56 57 58 58 58 58 59 59 59 59 58
63 65 66 65 63 61 61 60 59 58 57 57 56 56 56 55 55 56 56 56 56 56 55 55 55 56 57 57 57 58 58 59 59 60 60 60 59 58 57 56 55 54
Wind_Direction
251 256 258 256 256 256 255 255 254 254 255 254 255 256 255 254 252 254 257 257 257 262 267 269 270 270 271 272 275 278 282 285 287 288 288 289 291 294 297 299 299 298
241 248 254 254 254 253 253 254 255 255 254 253 253 253 254 254 252 254 260 261 261 265 268 269 269 270 272 275 278 281 284 286 287 287 289 290 293 295 296 297 297 297
231 240 248 252 253 253 252 252 252 252 253 254 254 253 253 253 254 256 260 262 263 265 267 268 270 272 274 276 278 281 283 285 285 286 288 291 293 294 294 294 296 296
233 240 249 255 256 255 253 251 251 250 251 254 256 256 254 253 254 257 259 261 261 263 265 268 271 273 275 276 277 279 282 283 284 285 287 290 292 292 292 293 294 295
236 240 247 249 246 248 250 250 251 251 251 254 257 260 259 256 254 255 258 259 260 263 266 269 271 273 275 276 278 279 280 281 282 284 287 288 289 289 290 292 293 295
238 240 240 234 226 236 246 248 249 251 252 254 257 260 262 260 258 257 258 259 261 264 266 268 270 272 274 276 277 278 279 280 282 284 286 286 285 286 288 291 293 294
240 238 238 236 231 233 243 248 249 249 251 254 256 258 259 260 259 259 260 261 263 265 266 268 270 272 274 275 275 277 278 280 282 284 283 283 283 285 287 290 292 292
240 234 234 240 242 239 243 249 252 252 253 254 255 257 258 259 259 260 261 262 264 266 267 269 271 271 272 273 274 276 278 280 282 281 280 280 282 284 287 289 290 289
240 235 235 241 247 247 247 250 254 257 258 258 257 258 258 258 260 260 261 262 263 265 267 268 268 270 271 272 274 277 279 280 280 278 277 279 281 283 285 287 288 286
241 237 237 241 246 251 252 253 255 258 260 260 260 259 258 258 259 260 261 262 262 263 264 266 268 270 272 274 276 278 279 278 276 275 276 279 281 282 284 285 284 282
242 240 240 242 244 249 254 256 256 256 258 259 259 259 258 257 258 258 259 261 262 263 265 268 271 273 274 275 276 277 276 275 273 274 277 278 279 280 282 282 281 280
241 242 243 246 247 249 252 252 253 254 255 256 256 257 256 255 255 257 260 262 264 266 268 270 272 273 273 274 274 274 273 272 273 274 276 276 277 279 280 280 279 279
241 243 244 246 248 249 246 245 248 251 252 253 254 254 254 255 256 259 262 264 265 267 269 269 270 270 271 272 272 272 271 271 272 273 273 274 276 278 278 277 278 279
240 243 243 244 246 245 242 242 244 245 246 249 251 253 254 256 258 260 262 264 265 266 267 268 268 269 269 269 269 269 269 269 270 271 271 273 276 277 276 277 280 282
243 245 243 244 244 242 241 241 242 242 244 245 247 249 252 255 257 258 260 262 264 265 266 267 268 268 266 266 266 266 267 268 270 271 272 274 276 276 276 278 282 285
246 246 245 245 245 244 243 242 243 244 246 247 247 247 250 252 254 256 258 260 262 263 265 266 267 267 267 267 266 267 268 270 272 273 273 275 276 276 277 280 284 286
246 244 245 248 247 246 246 246 246 247 248 249 250 250 251 252 254 255 257 258 261 263 264 265 266 267 268 269 270 271 272 274 275 275 275 276 277 278 279 282 284 284
240 241 243 248 250 248 248 248 249 250 250 250 250 251 252 254 255 256 257 259 260 262 263 264 265 267 268 270 271 272 273 274 276 275 275 276 277 278 280 281 282 281
231 234 235 240 245 247 248 248 249 250 251 251 251 251 252 254 255 255 257 259 260 261 262 263 264 266 268 269 270 271 272 274 276 276 276 276 277 278 279 280 281 282
227 228 227 230 237 242 246 249 249 250 251 253 253 253 253 253 254 254 255 256 258 259 261 263 265 266 267 269 270 272 274 275 276 276 276 276 277 277 279 280 282 282
223 225 226 229 234 239 243 248 251 251 251 253 254 254 254 254 254 254 254 255 257 259 261 263 265 266 267 269 271 272 273 274 275 276 276 276 277 278 279 282 283 283
224 226 229 230 232 234 235 240 246 249 250 253 254 254 254 255 255 255 256 257 258 260 261 263 265 266 268 269 270 271 273 274 274 275 276 276 277 278 280 282 282 282
227 229 231 231 232 233 233 234 240 245 248 251 253 254 255 256 257 257 257 259 261 262 263 265 266 267 267 267 268 269 271 272 273 274 275 276 278 279 280 281 281 281
229 231 232 233 234 235 236 237 240 243 246 248 252 255 256 258 258 258 258 260 261 263 265 266 267 267 268 268 268 269 270 272 273 274 275 276 277 278 280 281 281 282
231 232 233 234 236 237 238 239 241 243 246 248 250 253 255 258 260 260 260 260 262 264 265 266 267 267 267 268 269 270 271 272 273 274 275 277 278 279 280 281 282 283
232 233 234 235 236 238 238 239 241 244 246 248 250 252 254 256 258 260 260 261 262 263 264 265 266 267 267 268 269 271 272 274 275 277 278 279 279 280 280 280 280 280
Height
10670 10667 10667 10671 10675 10678 10680 10682 10685 10688 10690 10692 10693 10694 10696 10696 10697 10697 10697 10697 10697 10697 10697 10697 10697 10697 10697 10697 10697 10696 10696 10695 10694 10694 10694 10693 10692 10690 10688 10687 10685 10684
10665 10662 10662 10666 10669 10671 10673 10675 10677 10680 10683 10685 10686 10687 10689 10690 10690 10690 10691 10690 10690 10690 10690 10691 10691 10691 10691 10691 10691 10690 10690 10689 10689 10689 10688 10688 10686 10684 10683 10681 10680 10679
10659 10657 10658 10662 10665 10666 10667 10668 10670 10673 10676 10678 10680 10681 10682 10683 10683 10684 10684 10684 10683 10683 10684 10685 10685 10685 10685 10685 10685 10685 10685 10684 10684 10683 10683 10682 10681 10679 10678 10677 10675 10674
10654 10656 10659 10662 10662 10660 10660 10662 10664 10667 10669 10671 10672 10673 10675 10676 10677 10677 10677 10677 10677 10678 10678 10678 10678 10678 10679 10679 10679 10679 10679 10679 10679 10678 10678 10677 10675 10674 10673 10671 10670 10669
10651 10656 10660 10662 10660 10655 10652 10654 10657 10660 10662 10663 10665 10667 10668 10670 10671 10671 10671 10671 10672 10672 10672 10672 10673 10673 10673 10673 10673 10673 10674 10674 10674 10673 10673 10672 10671 10669 10668 10666 10665 10663
10647 10653 10656 10657 10655 10649 10645 10647 10650 10652 10654 10656 10659 10661 10663 10664 10665 10665 10665 10665 10666 10667 10666 10667 10667 10668 10668 10668 10667 10668 10668 10668 10668 10668 10668 10667 10666 10665 10664 10661 10659 10658
10643 10647 10650 10650 10648 10644 10642 10643 10645 10646 10649 10651 10654 10656 10657 10659 10659 10660 10660 10660 10661 10661 10661 10661 10662 10662 10663 10662 10662 10662 10662 10662 10663 10663 10663 10662 10661 10660 10659 10657 10655 10654
10636 10640 10643 10644 10642 10642 10641 10641 10642 10644 10646 10648 10650 10651 10653 10654 10655 10655 10655 10655 10655 10655 10656 10656 10656 10657 10657 10657 10657 10657 10657 10657 10657 10658 10658 10657 10657 10655 10653 10652 10651 10650
10631 10634 10636 10637 10638 10638 10638 10638 10639 10641 10642 10644 10646 10647 10648 10649 10650 10650 10650 10650 10650 10651 10651 10651 10651 10651 10651 10651 10651 10651 10651 10652 10652 10652 10652 10652 10651 10650 10649 10647 10646 10645
10627 10629 10631 10632 10633 10633 10634 10635 10636 10637 10638 10640 10641 10642 10643 10644 10644 10644 10644 10644 10645 10646 10646 10646 10645 10646 10646 10645 10645 10645 10646 10646 10646 10646 10646 10646 10646 10645 10644 10643 10642 10640
10623 10625 10627 10628 10628 10629 10630 10632 10633 10632 10634 10636 10637 10637 10638 10639 10638 10638 10639 10639 10640 10640 10640 10640 10640 10640 10640 10640 10639 10640 10640 10640 10640 10640 10640 10640 10641 10640 10639 10638 10637 10635
10619 10621 10623 10624 10624 10626 10627 10628 10629 10629 10630 10632 10632 10633 10634 10634 10634 10634 10634 10634 10634 10634 10634 10633 10633 10633 10634 10634 10634 10635 10635 10635 10635 10635 10635 10635 10636 10635 10634 10633 10632 10631
10616 10618 10619 10620 10621 10622 10623 10625 10625 10625 10626 10627 10627 10628 10629 10629 10629 10629 10629 10628 10628 10628 10627 10627 10627 10627 10628 10629 10629 10630 10631 10630 10631 10631 10631 10631 10631 10631 10630 10629 10628 10628
10614 10615 10616 10616 10617 10618 10619 10620 10621 10621 10621 10622 10623 10624 10624 10624 10624 10624 10624 10623 10623 10622 10621 10621 10622 10623 10624 10624 10625 10626 10626 10626 10627 10627 10627 10627 10627 10627 10626 10625 10624 10624
10613 10613 10614 10613 10613 10613 10614 10616 10616 10616 10617 10617 10618 10619 10619 10618 10619 10619 10619 10618 10617 10616 10616 10617 10618 10619 10619 10620 10621 10622 10622 10622 10623 10623 10623 10623 10623 10622 10622 10621 10621 10621
10610 10610 10611 10611 10609 10609 10609 10611 10611 10612 10612 10612 10613 10614 10613 10613 10614 10615 10614 10613 10611 10611 10612 10614 10614 10614 10615 10616 10617 10617 10617 10618 10618 10618 10618 10618 10618 10618 10617 10617 10617 10617
10605 10605 10606 10606 10605 10604 10604 10605 10606 10606 10607 10606 10607 10609 10608 10607 10609 10610 10609 10607 10606 10607 10608 10609 10609 10609 10610 10610 10611 10612 10612 10612 10613 10613 10613 10614 10613 10613 10613 10613 10613 10612
10596 10598 10601 10601 10599 10598 10598 10599 10600 10600 10600 10600 10602 10603 10602 10603 10605 10605 10604 10603 10602 10602 10603 10605 10604 10604 10604 10605 10606 10607 10607 10607 10608 10608 10609 10609 10609 10609 10609 10608 10607 10606
10592 10594 10597 10596 10593 10593 10593 10593 10593 10594 10593 10594 10595 10597 10597 10598 10599 10600 10600 10599 10598 10598 10599 10600 10600 10600 10600 10600 10601 10602 10602 10602 10603 10604 10604 10604 10604 10603 10603 10602 10602 10600
10590 10590 10591 10590 10588 10588 10589 10587 10586 10587 10586 10586 10588 10590 10591 10591 10593 10595 10595 10595 10594 10594 10595 10596 10596 10595 10595 10595 10596 10597 10597 10597 10598 10598 10599 10598 10598 10597 10596 10596 10596 10594
10586 10585 10585 10584 10583 10584 10584 10581 10580 10580 10580 10579 10581 10582 10583 10583 10586 10589 10590 10590 10590 10591 10592 10592 10591 10591 10590 10590 10591 10592 10592 10592 10592 10592 10592 10592 10591 10590 10590 10590 10589 10588
10581 10580 10579 10579 10579 10579 10578 10577 10575 10574 10574 10573 10574 10574 10575 10576 10579 10583 10585 10586 10587 10587 10587 10587 10587 10586 10585 10585 10585 10585 10586 10586 10585 10586 10586 10585 10584 10584 10584 10585 10584 10582
10575 10574 10573 10573 10572 10572 10572 10571 10570 10569 10569 10568 10567 10567 10569 10570 10573 10577 10581 10581 10582 10582 10582 10582 10582 10581 10580 10580 10580 10580 10580 10579 10579 10579 10580 10579 10579 10578 10578 10578 10577 10576
10568 10568 10566 10566 10566 10566 10566 10566 10565 10563 10563 10563 10562 10563 10565 10564 10566 10571 10575 10576 10576 10576 10576 10576 10575 10574 10574 10573 10573 10573 10573 10573 10572 10573 10574 10574 10574 10573 10571 10570 10569 10568
10561 10561 10560 10560 10560 10560 10561 10561 10560 10558 10558 10559 10559 10559 10560 10559 10561 10565 10568 10569 10570 10570 10569 10568 10568 10567 10567 10566 10566 10566 10565 10565 10565 10566 10567 10567 10568 10566 10564 10562 10561 10560
10555 10554 10554 10554 10554 10554 10554 10555 10554 10554 10554 10555 10554 10554 10554 10555 10557 10558 10560 10562 10563 10562 10562 10561 10561 10561 10560 10560 10560 10559 10558 10558 10558 10558 10559 10559 10559 10558 10556 10554 10553 10553